Home > Weather > Caguas > Past weeks

Flag for Puerto Rico Past Weather in Caguas, Puerto Rico — Yesterday and Last 2 Weeks

Now
87 °F

Scattered clouds.


Feels Like: 98 °F
Forecast: 75 / 88 °F
Wind: 18 mph from Northeast

Location: Luis Munoz Marin

Current Time: Jun 26, 2016 at 1:27:23 PM

Latest Report: Jun 26, 2016 at 12:56 PM


Visibility: 9 mi

Pressure: 30.02 "Hg

Humidity: 69%

Dew Point: 76 °F

Location of CaguasLocation

Past Weather in Caguas — Graph

°F

Caguas Temperature Yesterday

Maximum temperature yesterday: 88 °F (at 12:56 PM)
Minimum temperature yesterday: 80 °F (at 1:56 AM)
Average temperature yesterday: 83 °F

High & Low Weather Summary for the Past Weeks

 TemperatureHumidityPressure
High92 °F (Jun 12, 12:56 PM)100% (Jun 20, 12:56 AM)30.17 "Hg (Jun 20, 12:56 AM)
Low75 °F (Jun 22, 4:56 AM)46% (Jun 14, 2:56 PM)29.99 "Hg (Jun 18, 3:56 PM)
Average83 °F78%30.07 "Hg
* Reported Jun 11 11:56 AM — Jun 26 11:56 AM, Caguas, Weather by CustomWeather, © 2016

Note: Actual official high and low records may vary slightly from our data, if they occured in-between our weather recording intervals... More about our weather records

Advertising

Caguas Weather History for the Previous 24 Hours

Scroll right to see more
 ConditionsComfort  
Time TempWeatherWind HumidityBarometerVisibility
11:56 AM
Sun, Jun 26
87 °FScattered clouds.17 mph69%30.03 "Hg9 mi
10:56 AM86 °FScattered clouds.16 mph72%30.05 "Hg9 mi
9:56 AM84 °FScattered clouds.15 mph74%30.05 "Hg9 mi
8:56 AM83 °FScattered clouds.6 mph88%30.05 "Hg9 mi
7:56 AM82 °FScattered clouds.5 mph85%30.04 "Hg9 mi
6:56 AM80 °FScattered clouds.No wind87%30.03 "Hg9 mi
5:56 AM79 °FPassing clouds.No wind90%30.02 "Hg10 mi
4:56 AM80 °FPassing clouds.No wind87%30.02 "Hg10 mi
3:56 AM80 °FPassing clouds.No wind87%30.02 "Hg10 mi
2:56 AM81 °FPassing clouds.No wind85%30.01 "Hg10 mi
1:56 AM79 °FPassing clouds.3 mph90%30.02 "Hg10 mi
12:56 AM81 °FPassing clouds.5 mph85%30.03 "Hg10 mi
11:56 PM
Sat, Jun 25
80 °FPassing clouds.7 mph87%30.05 "Hg10 mi
10:56 PM80 °FPassing clouds.8 mph90%30.06 "Hg10 mi
9:56 PM81 °FPassing clouds.8 mph88%30.07 "Hg10 mi
8:56 PM81 °FPassing clouds.9 mph88%30.06 "Hg10 mi
7:56 PM82 °FScattered clouds.9 mph85%30.05 "Hg10 mi
6:56 PM82 °FScattered clouds.14 mph85%30.03 "Hg10 mi
5:56 PM83 °FScattered clouds.14 mph79%30.01 "Hg10 mi
4:56 PM83 °FScattered clouds.12 mph77%30.01 "Hg9 mi
3:56 PM85 °FCloudy.18 mph75%30.01 "Hg9 mi
2:56 PM86 °FScattered clouds.18 mph70%30.01 "Hg9 mi
1:56 PM87 °FScattered clouds.18 mph72%30.02 "Hg9 mi
Weather by CustomWeather, © 2016

See weather overviewHow to use our weather pages